Hourly Data Report for October 06, 2017

All times are specified in Local Standard Time (LST). Add 1 hour to adjust for Daylight Saving Time where and when it is observed.

RAE LAKES
NORTHWEST TERRITORIES

64°06'42.078" N
117°19'40.086" W
223.20 m
2203359
71165
WYH

Download Data

Hourly Data (October 2017)
Hourly Data Report for October 6, 2017
Temp Definition
°C
Dew Point Temp Definition
°C
Rel Hum Definition
%
Wind Dir Definition
10's deg

Wind Spd Definition
km/h
Visibility Definition
km
Stn Press Definition
kPa
Hmdx Definition


Wind Chill Definition


Weather Definition


TIME
00:00 1.6 0.5 92 10 5   96.82     LegendNANA
01:00 1.7 0.4 91 12 3   96.79     LegendNANA
02:00 1.8 0.6 92 11 6   96.71     LegendNANA
03:00 1.8 0.6 92 14 2   96.66     LegendNANA
04:00 1.5 0.6 94 11 1   96.60     LegendNANA
05:00 1.8 0.8 93 6 5   96.58     LegendNANA
06:00 1.8 0.7 92 5 8   96.52     LegendNANA
07:00 1.9 0.7 92 6 7   96.46     LegendNANA
08:00 1.9 0.8 92 6 8   96.42     LegendNANA
09:00 2.0 0.2 88 5 11   96.38     LegendNANA
10:00 2.5 0.3 86 5 10   96.40     LegendNANA
11:00 3.0 0.5 84 5 9   96.39     LegendNANA
12:00 3.2 0.8 84 3 7   96.36     LegendNANA
13:00 3.5 0.3 80 4 10   96.37     LegendNANA
14:00 2.8 0.9 87 4 12   96.40     LegendNANA
15:00 3.3 0.2 80 5 15   96.42     LegendNANA
16:00 2.4 -0.3 83 5 16   96.46     LegendNANA
17:00 1.8 -0.6 84 5 15   96.53     LegendNANA
18:00 1.4 -1.4 82 5 14   96.58     LegendNANA
19:00 0.5 -1.2 88 5 14   96.64     LegendNANA
20:00 0.2 -1.7 87 5 11   96.69     LegendNANA
21:00 -0.3 -1.7 90 5 15   96.74   -5 LegendNANA
22:00 -0.3 -2.2 87 4 14   96.80   -5 LegendNANA
23:00 -0.4 -3.3 80 5 16   96.86   -5 LegendNANA

Notes on Data Quality.

Legend

  • E = Estimated
  • M = Missing
  • NA = Not Available
  • ‡ = Partner data that is not subject to review by the National Climate Archives
Date modified: